• In Hungary
  • List of Countries
  • For 7 days
  • Water Temperature
  • Satellite Maps
  • Weather Map
  • News
  • Weather Widgets
  • user-avatar
    Login

    Hourly Weather Graz

    Today, 12 December, Tuesday

    Time Temperature Precipitation Wind Pressure Humidity
    00:00 +7°C° 0 mm 4 mps 709 mmHg 92%
    01:00 +8°C° 0 mm 2 mps 709 mmHg 94%
    02:00 +8°C° 0 mm 3 mps 710 mmHg 93%
    03:00 +8°C° 0 mm 3 mps 710 mmHg 92%
    04:00 +8°C° 0 mm 3 mps 711 mmHg 92%
    05:00 +8°C° 0.1 mm 3 mps 711 mmHg 92%
    06:00 +8°C° 0.1 mm 3 mps 712 mmHg 92%
    07:00 +8°C° 0.1 mm 2 mps 713 mmHg 93%
    08:00 +8°C° 0.1 mm 2 mps 714 mmHg 93%
    09:00 +8°C° 0.1 mm 2 mps 715 mmHg 93%
    10:00 +8°C° 0.1 mm 2 mps 716 mmHg 93%
    11:00 +8°C° 0.1 mm 2 mps 717 mmHg 91%
    12:00 +9°C° 0.1 mm 1 mps 717 mmHg 89%
    13:00 +10°C° 0.1 mm 1 mps 718 mmHg 88%
    14:00 +9°C° 0.1 mm 1 mps 719 mmHg 89%
    15:00 +8°C° 0.1 mm 1 mps 719 mmHg 90%
    16:00 +7°C° 0.1 mm 1 mps 720 mmHg 91%
    17:00 +7°C° 0.1 mm 1 mps 720 mmHg 91%
    18:00 +6°C° 0.1 mm 1 mps 721 mmHg 91%
    19:00 +4°C° 0.1 mm 2 mps 721 mmHg 91%
    20:00 +4°C° 0.4 mm 2 mps 722 mmHg 91%
    21:00 +4°C° 0.4 mm 2 mps 722 mmHg 91%
    22:00 +3°C° 0.4 mm 2 mps 723 mmHg 91%
    23:00 +3°C° 1 mm 2 mps 723 mmHg 92%

    Tomorrow, 13 December, Wednesday

    Time Temperature Precipitation Wind Pressure Humidity
    00:00 +3°C° 1 mm 2 mps 724 mmHg 92%
    01:00 +2°C° 1 mm 2 mps 724 mmHg 93%
    02:00 +3°C° 1.2 mm 1 mps 725 mmHg 93%
    03:00 +3°C° 1.2 mm 1 mps 725 mmHg 93%
    04:00 +3°C° 1.2 mm 1 mps 725 mmHg 94%
    05:00 +2°C° 0.4 mm 1 mps 725 mmHg 94%
    06:00 +2°C° 0.4 mm 1 mps 726 mmHg 94%
    07:00 +1°C° 0.4 mm 0 mps 726 mmHg 94%
    08:00 +2°C° 0.2 mm 0 mps 726 mmHg 92%
    09:00 +2°C° 0.2 mm 0 mps 726 mmHg 90%
    10:00 +2°C° 0.2 mm 0 mps 727 mmHg 88%
    11:00 +4°C° 0.1 mm 1 mps 726 mmHg 86%
    12:00 +4°C° 0.1 mm 1 mps 726 mmHg 84%
    13:00 +5°C° 0.1 mm 1 mps 725 mmHg 82%
    14:00 +4°C° 0 mm 1 mps 725 mmHg 86%
    15:00 +3°C° 0 mm 1 mps 724 mmHg 89%
    16:00 +3°C° 0 mm 1 mps 724 mmHg 92%
    17:00 +2°C° 0 mm 1 mps 723 mmHg 93%
    18:00 +1°C° 0 mm 1 mps 723 mmHg 94%
    19:00 +1°C° 0 mm 1 mps 723 mmHg 95%
    20:00 0°C° 0 mm 1 mps 722 mmHg 95%
    21:00 0°C° 0 mm 1 mps 722 mmHg 95%
    22:00 0°C° 0 mm 1 mps 721 mmHg 95%
    23:00 +1°C° 0 mm 1 mps 720 mmHg 94%

    Day after tomorrow, 14 December, Thursday

    Time Temperature Precipitation Wind Pressure Humidity
    00:00 +1°C° 0 mm 1 mps 720 mmHg 93%
    01:00 -1°C° 0 mm 2 mps 719 mmHg 93%
    02:00 -1°C° 0 mm 2 mps 719 mmHg 93%
    03:00 -1°C° 0 mm 2 mps 718 mmHg 92%
    04:00 -1°C° 0 mm 2 mps 717 mmHg 92%
    05:00 -1°C° 0 mm 2 mps 717 mmHg 91%
    06:00 +1°C° 0 mm 2 mps 717 mmHg 90%
    07:00 +1°C° 0 mm 2 mps 717 mmHg 89%
    08:00 +2°C° 0 mm 2 mps 717 mmHg 87%
    09:00 +3°C° 0 mm 2 mps 717 mmHg 85%
    10:00 +4°C° 0 mm 2 mps 717 mmHg 83%
    11:00 +4°C° 0 mm 2 mps 716 mmHg 83%
    12:00 +5°C° 0 mm 2 mps 716 mmHg 83%
    13:00 +7°C° 0 mm 1 mps 716 mmHg 83%
    14:00 +6°C° 0.2 mm 1 mps 715 mmHg 85%
    15:00 +6°C° 0.2 mm 1 mps 715 mmHg 87%
    16:00 +4°C° 0.2 mm 0 mps 715 mmHg 90%
    17:00 +5°C° 0.1 mm 1 mps 715 mmHg 90%
    18:00 +4°C° 0.1 mm 1 mps 715 mmHg 91%
    19:00 +4°C° 0.1 mm 1 mps 714 mmHg 92%
    20:00 +4°C° 0 mm 1 mps 714 mmHg 92%
    21:00 +4°C° 0 mm 1 mps 713 mmHg 92%
    22:00 +4°C° 0 mm 1 mps 713 mmHg 93%
    23:00 +4°C° 0 mm 1 mps 712 mmHg 93%

    15 December, Friday

    Time Temperature Precipitation Wind Pressure Humidity
    00:00 +3°C° 0 mm 2 mps 711 mmHg 93%
    01:00 +3°C° 0 mm 2 mps 711 mmHg 94%
    02:00 +3°C° 0.1 mm 2 mps 711 mmHg 92%
    03:00 +4°C° 0.1 mm 2 mps 711 mmHg 91%
    04:00 +3°C° 0.1 mm 3 mps 711 mmHg 90%
    05:00 +4°C° 0.3 mm 2 mps 712 mmHg 90%
    06:00 +4°C° 0.3 mm 2 mps 712 mmHg 90%
    07:00 +4°C° 0.3 mm 1 mps 712 mmHg 90%
    08:00 +4°C° 0.5 mm 1 mps 712 mmHg 89%
    09:00 +4°C° 0.5 mm 1 mps 713 mmHg 88%
    10:00 +4°C° 0.5 mm 1 mps 713 mmHg 87%
    11:00 +4°C° 0.5 mm 1 mps 713 mmHg 88%
    12:00 +4°C° 0.5 mm 1 mps 713 mmHg 88%
    13:00 +4°C° 0.5 mm 1 mps 713 mmHg 88%
    14:00 +4°C° 0.9 mm 1 mps 713 mmHg 90%
    15:00 +4°C° 0.9 mm 1 mps 713 mmHg 92%
    16:00 +3°C° 0.9 mm 1 mps 713 mmHg 93%
    17:00 +3°C° 0.7 mm 1 mps 713 mmHg 94%
    18:00 +2°C° 0.7 mm 0 mps 713 mmHg 94%
    19:00 +1°C° 0.7 mm 0 mps 713 mmHg 94%
    20:00 +1°C° 0.1 mm 0 mps 714 mmHg 94%
    21:00 +2°C° 0.1 mm 1 mps 714 mmHg 93%
    22:00 +2°C° 0.1 mm 1 mps 714 mmHg 93%
    23:00 +2°C° 0 mm 1 mps 714 mmHg 92%

    16 December, Saturday

    Time Temperature Precipitation Wind Pressure Humidity
    00:00 +2°C° 0 mm 1 mps 714 mmHg 92%
    01:00 +2°C° 0 mm 1 mps 714 mmHg 91%
    02:00 +1°C° 0 mm 1 mps 715 mmHg 91%
    03:00 +1°C° 0 mm 1 mps 715 mmHg 90%
    04:00 +1°C° 0 mm 1 mps 715 mmHg 89%
    05:00 +1°C° 0 mm 1 mps 716 mmHg 88%
    06:00 0°C° 0 mm 1 mps 716 mmHg 88%
    07:00 0°C° 0 mm 1 mps 717 mmHg 87%
    08:00 +1°C° 0 mm 1 mps 717 mmHg 85%
    09:00 +1°C° 0 mm 1 mps 718 mmHg 83%
    10:00 +2°C° 0 mm 1 mps 719 mmHg 80%
    11:00 +3°C° 0 mm 1 mps 719 mmHg 78%
    12:00 +4°C° 0 mm 1 mps 719 mmHg 76%
    13:00 +3°C° 0 mm 2 mps 719 mmHg 73%
    14:00 +3°C° 0 mm 1 mps 720 mmHg 76%
    15:00 +2°C° 0 mm 1 mps 720 mmHg 78%
    16:00 +1°C° 0 mm 1 mps 720 mmHg 80%
    17:00 0°C° 0 mm 1 mps 721 mmHg 81%
    18:00 0°C° 0 mm 1 mps 722 mmHg 82%
    19:00 -1°C° 0 mm 1 mps 722 mmHg 83%
    20:00 -1°C° 0 mm 1 mps 723 mmHg 83%
    21:00 -2°C° 0 mm 1 mps 723 mmHg 83%
    22:00 -2°C° 0 mm 1 mps 723 mmHg 83%
    23:00 -2°C° 0 mm 1 mps 723 mmHg 82%

    17 December, Sunday

    Time Temperature Precipitation Wind Pressure Humidity
    00:00 -2°C° 0 mm 1 mps 723 mmHg 81%
    01:00 -2°C° 0 mm 1 mps 724 mmHg 80%
    02:00 -2°C° 0 mm 1 mps 724 mmHg 80%
    03:00 -2°C° 0 mm 1 mps 724 mmHg 79%
    04:00 -2°C° 0 mm 1 mps 724 mmHg 79%
    05:00 -2°C° 0 mm 1 mps 724 mmHg 79%
    06:00 -2°C° 0 mm 1 mps 724 mmHg 79%
    07:00 -2°C° 0 mm 1 mps 725 mmHg 79%
    08:00 -1°C° 0 mm 1 mps 725 mmHg 78%
    09:00 0°C° 0 mm 1 mps 725 mmHg 77%
    10:00 +1°C° 0 mm 1 mps 726 mmHg 76%
    11:00 +2°C° 0 mm 1 mps 726 mmHg 73%
    12:00 +3°C° 0 mm 1 mps 726 mmHg 70%
    13:00 +4°C° 0 mm 1 mps 726 mmHg 68%
    14:00 +3°C° 0 mm 1 mps 726 mmHg 72%
    15:00 +2°C° 0 mm 1 mps 726 mmHg 76%
    16:00 0°C° 0 mm 1 mps 727 mmHg 81%
    17:00 0°C° 0 mm 1 mps 727 mmHg 82%
    18:00 0°C° 0 mm 1 mps 728 mmHg 84%
    19:00 -1°C° 0 mm 1 mps 729 mmHg 85%
    20:00 -1°C° 0 mm 1 mps 729 mmHg 85%
    21:00 -1°C° 0 mm 1 mps 729 mmHg 86%
    22:00 -1°C° 0 mm 1 mps 730 mmHg 86%
    23:00 -1°C° 0 mm 1 mps 730 mmHg 86%
    Show more